Regional Weather Roundup
Issued by NWS

Home | Current Version | Previous Version | Graphics & Text | Print | Product List | Glossary On
Versions: 1 2 3 4 5 6 7 8 9 10 11 12 13 14 15 16 17 18 19 20 21 22 23 24 25 26 27 28 29 30 31 32 33 34 35 36 37 38 39 40 41 42 43 44 45 46 47 48 49 50
000
ASUS45 KBOI 300110
RWRID

IDAHO REGIONAL WEATHER ROUNDUP
NATIONAL WEATHER SERVICE BOISE ID
700 PM MDT WED MAR 29 2017

NOTE: "FAIR" INDICATES FEW OR NO CLOUDS BELOW 12000 FEET
WITH NO SIGNIFICANT WEATHER AND/OR OBSTRUCTIONS TO VISIBILITY

IDZ012-014-300200-
SOUTHWEST IDAHO


CITY           SKY/WX    TMP DP  RH WIND       PRES   REMARKS
BOISE          CLOUDY    55  46  71 S6        30.00S
CALDWELL       LGT RAIN  54  49  83 CALM      30.00F
MOUNTAIN HOME  LGT RAIN  62  46  56 N10       30.00R
$$

IDZ016-017-300200-
SOUTHCENTRAL IDAHO


CITY           SKY/WX    TMP DP  RH WIND       PRES   REMARKS
BURLEY         CLOUDY    56  36  47 W7        30.03F
JEROME         CLOUDY    57  36  45 CALM      30.03F
TWIN FALLS     CLOUDY    58  38  47 CALM      30.03F
$$

IDZ019>023-300200-
SOUTHEAST IDAHO


CITY           SKY/WX    TMP DP  RH WIND       PRES   REMARKS
IDAHO FALLS    CLOUDY    53  34  48 SW14      30.04F
POCATELLO      CLOUDY    55  36  48 W14       30.05F
REXBURG        LGT RAIN  50  34  54 S9        30.04F
$$

IDZ006-010-011-018-031-032-300200-
CENTRAL IDAHO MOUNTAINS


CITY           SKY/WX    TMP DP  RH WIND       PRES   REMARKS
MCCALL         LGT RAIN  40  37  89 N3        29.99F FOG
HAILEY         PTSUNNY   48  36  61 SE3       30.07F
STANLEY          N/A     38  36  92 SE8       30.04F WCI  32
SALMON         CLOUDY    45  43  93 CALM      29.97S
CHALLIS        CLOUDY    52  35  52 S10       29.97F
$$

IDZ002-004-006-007-026-300200-
NORTHERN IDAHO


CITY           SKY/WX    TMP DP  RH WIND       PRES   REMARKS
LEWISTON       CLOUDY    55  46  71 S9        29.88F
LOWELL           N/A     46  44  93 CALM      30.00S
COEUR D`ALENE  CLOUDY    48  46  93 S8        29.86F
MULLAN PASS    MIX PCPN  33  33 100 VRB5      29.87F VSB 1/4 WCI  29
$$



USA.gov is the U.S. government's official web portal to all federal, state and local government web resources and services.